SCP
0 0 0 0 0 0 0 0 0 0 0 0 0 0 0 0 0 0 0 0 0 0 0 0 0 0 0 0 0 0 0 0 0 0 0 0 0 0
0 0 0 0 0 0 0 0 0 0 0 0 0 0 0 0 0 0 0 0 0 0 0 0 0 0 0 0 0 0 0 0 0 0 0 0 0 0
0 0 0 0 0 0 0 0 0 0 0 0 0 0 0 0 0 0 0 0 0 0 0 0 0 0 0 0 0 0 0 0 0 0 0 0 0 0
0 0 0 0 0 0 0 0 0 0 0 0 0 0 0 0 0 0 0 0 0 0 0 0 0 0 0 0 0 0 0 0 0 0 0 0 0 0
0 0 0 0 0 0 0 0 0 0 0 0 0 0 0 0 0 0 0 0 0 0 0 0 0 0 0 0 0 0 0 0 0 0 0 0 0 0
0 0 0 0 0 0 0 0 0 0 0 0 0 0 0 0 0 0 0 0 0 0 0 0 0 0 0 0 0 0 0 0 0 0 0 0 0 0
0 0 0 0 0 0 0 0 0 0 0 0 0 0 0 0 0 0 0 0 0 0 0 0 0 0 0 0 0 0 0 0 0 0 0 0 0 0
0 0 0 0 0 0 0 0 0 0 0 0 0 0 0 0 0 0 0 0 0 0 0 0 0 0 0 0 0 0 0 0 0 0 0 0 0 0
0 0 0 0 0 0 0 0 0 0 0 0 0 0 0 0 0 0 0 0 0 0 0 0 0 0 0 0 0 0 0 0 0 0 0 0 0 0
0 0 0 0 0 0 0 0 0 0 0 0 0 0 0 -0 -0 0 0 0 0 0 0 0 0 0 0 0 0 0 0 0 0 0 0 0 0 0
0 0 0 0 0 0 0 0 0 0 0 0 0 0 0 0 0 0 0 0 0 0 0 0 0 0 0 0 0 0 0 0 0 0 0 0 0 0
0 0 0 0 0 0 0 0 0 0 0 0 0 0 0 0 0 0 0 0 0 0 0 0 0 0 0 0 0 0 0 0 0 0 0 0 0 0
0 0 0 0 0 0 0 0 0 0 0 0 0 0 0 0 0 0 0 0 0 0 0 0 0 -0 0 0 0 0 0 0 0 0 0 0 0 0
0 0 0 0 0 0 0 0 0 0 0 0 0 0 0 0 0 0 0 0 0 0 0 0 0 0 0 0 0 0 0 0 0 -0 0 0 0 0
0 0 0 0 0 0 0 0 0 0 0 0 0 0 0 0 0 0 0 0 0 0 0 0 0 0 0 0 0 0 0 -0 -0 -0 -0 0 0 0
0 0 0 0 0 0 0 0 0 0 0 0 0 0 0 0 0 0 0 0 0 0 0 0 0 0 0 0 0 0 -0 -0 -0 -0 -0 0 0 0
0 0 0 0 0 0 0 0 0 0 0 0 0 0 0 0 0 0 0 0 0 0 0 -0 -0 0 0 0 0 0 -0 -0 -0 -0 -0 -0 0 0
0 0 0 0 0 0 0 0 0 0 0 0 0 0 0 0 0 0 0 0 0 0 0 -0 0 0 0 0 0 0 0 0 -0 -0 -0 -0 0 0
0 0 0 0 0 0 0 0 0 0 0 0 0 0 0 0 0 0 0 0 0 0 0 0 0 0 0 -0 -0 0 0 0 -0 -0 -0 -0 0 0
0 0 0 0 0 0 0 0 0 0 0 0 0 0 0 0 0 0 0 0 0 0 0 0 0 0 0 -0 -0 0 0 0 -0 0 -0 0 0 0
0 0 0 0 0 0 0 0 0 0 0 0 0 0 0 0 0 0 0 0 0 0 0 0 0 0 0 -0 -0 0 0 0 0 0 -0 0 0 0
0 0 0 0 0 0 0 0 0 0 0 0 0 0 0 0 0 0 0 0 0 0 0 0 0 0 0 0 0 0 0 0 0 0 0 0 0 0
0 0 0 0 0 0 0 0 0 0 0 0 0 0 0 0 0 0 0 0 0 0 0 0 0 0 0 0 0 0 0 0 0 0 0 0 0 0
Wind_Speed
3 3 2 2 1 1 1 2 3 2 2 2 2 3 2 2 3 2 2 3 2 2 1 1 1 1 1 1 2 3 5 6 7 8 10 12 14 17
3 3 2 1 1 1 1 2 2 3 3 1 2 2 3 4 6 4 4 6 6 4 2 2 1 1 1 2 3 5 6 8 9 10 11 12 13 14
3 4 3 2 2 1 1 2 2 3 5 3 3 4 6 5 5 5 5 5 5 8 6 4 3 2 2 3 5 6 7 9 10 11 13 14 15 16
4 4 4 4 4 3 3 4 4 5 6 6 4 5 6 4 5 5 5 5 5 8 8 7 5 3 3 4 5 7 8 10 11 12 14 15 17 18
6 6 5 7 6 5 6 7 7 8 7 6 4 4 4 3 4 4 5 4 5 7 8 7 6 5 4 4 5 6 8 9 11 13 14 15 17 18
7 6 6 7 7 7 8 9 9 9 7 6 4 4 3 3 4 4 4 4 4 5 5 5 6 6 6 7 7 8 8 9 11 12 14 15 16 18
8 8 8 10 11 9 8 7 8 7 6 6 4 4 4 4 4 3 3 3 3 3 3 3 3 3 3 5 8 11 11 11 12 13 14 15 16 17
8 7 8 9 11 14 14 12 9 8 6 5 3 4 3 3 3 3 3 3 4 4 3 3 2 2 3 3 8 11 12 13 13 14 14 15 15 16
7 6 7 7 8 7 10 12 12 11 8 5 4 3 2 2 3 4 3 2 1 4 3 3 3 3 3 3 9 11 12 13 14 14 15 15 15 15
6 7 7 7 6 7 8 8 7 6 6 4 4 2 2 1 1 1 0 2 3 3 3 3 4 3 3 3 7 10 12 13 13 13 14 14 13 12
5 6 7 7 10 11 9 8 7 6 7 9 7 6 6 7 5 4 5 4 3 4 3 3 4 4 3 3 5 10 11 12 12 12 12 13 13 10
4 5 8 9 10 11 8 8 8 5 5 7 8 8 7 8 9 5 3 3 2 3 4 4 4 4 5 4 3 5 6 9 11 11 12 13 13 7
4 3 3 9 10 10 8 6 6 5 6 6 5 5 5 5 5 5 3 3 3 1 4 3 3 4 3 4 4 4 5 5 6 6 9 11 13 9
5 3 3 8 9 9 7 9 11 9 5 5 5 5 4 4 4 5 5 4 3 1 3 3 2 2 3 4 5 5 4 5 6 6 6 8 8 9
5 8 8 9 8 6 9 11 8 6 5 5 4 3 2 2 3 4 6 5 5 5 6 5 3 2 2 2 4 4 5 5 7 7 7 6 6 5
4 6 6 7 6 5 6 6 4 4 4 4 2 2 3 3 4 4 4 4 4 5 7 7 6 4 3 3 3 4 4 5 6 6 5 6 6 6
6 3 2 3 3 3 3 3 3 4 4 3 3 4 4 3 3 3 3 4 4 3 5 6 5 3 2 3 3 4 4 4 5 6 5 5 6 7
7 4 3 3 3 4 4 3 2 3 3 3 3 3 3 3 3 3 3 4 3 3 4 4 6 6 6 4 2 3 4 4 5 6 5 5 5 6
5 4 3 3 4 5 5 4 3 3 3 3 3 3 3 2 2 3 3 3 3 3 3 3 4 4 4 5 7 4 3 4 5 5 5 4 4 5
3 4 4 3 5 6 6 4 4 4 3 3 3 3 3 3 2 2 2 2 2 3 4 4 4 3 1 2 3 5 6 4 4 5 5 4 3 3
4 4 4 4 5 7 7 6 5 5 5 4 3 3 3 3 2 2 2 3 3 3 3 4 5 5 1 2 4 5 6 5 4 2 4 4 4 4
5 5 5 5 6 6 7 6 5 5 5 4 4 4 3 3 4 3 3 2 2 1 1 3 5 5 5 4 3 4 5 7 7 7 5 3 2 3
6 5 5 6 7 6 6 7 7 5 5 5 5 4 4 3 3 3 3 3 2 2 2 3 5 4 3 3 3 3 5 6 5 5 6 8 7 6
Wind_Direction
174 171 169 163 173 173 173 158 138 125 78 18 28 8 20 53 34 31 17 8 9 16 22 38 52 60 65 270 267 268 268 266 264 262 257 252 246 242
169 161 138 116 135 176 177 166 158 143 120 70 41 16 23 37 33 31 25 22 22 22 16 29 45 35 345 304 287 277 272 268 267 265 262 259 255 251
128 122 110 101 100 100 115 116 124 120 111 69 34 26 38 33 19 26 37 39 32 32 31 32 33 18 340 314 299 290 283 278 275 271 267 262 256 251
107 102 104 102 89 84 87 84 84 87 100 89 40 27 32 27 29 33 30 39 38 37 39 40 36 20 350 323 306 295 288 282 277 273 269 264 259 254
92 96 95 94 85 78 80 83 84 86 86 90 58 25 20 17 22 28 34 27 34 39 41 37 34 31 18 355 331 316 301 289 281 275 270 266 262 256
77 79 79 83 83 81 82 87 95 91 83 80 63 30 13 349 24 18 17 15 20 21 24 23 23 26 19 10 356 341 325 312 299 288 278 271 263 257
70 65 66 71 73 77 87 89 93 92 84 78 64 42 21 14 4 352 17 355 355 4 355 356 359 358 354 355 355 346 335 325 316 306 294 283 271 260
75 64 60 57 68 71 75 77 88 97 94 85 71 61 29 9 1 13 19 26 360 337 350 324 336 335 329 339 344 345 340 332 324 317 309 298 284 268
77 71 71 62 66 70 66 62 61 71 92 109 94 79 58 8 27 25 21 43 358 318 352 322 322 313 306 321 339 343 339 334 330 326 322 314 301 282
82 87 83 63 66 82 73 59 48 43 56 79 114 126 125 109 90 92 344 22 337 333 24 351 320 309 303 313 327 336 339 339 336 333 330 328 323 306
75 78 88 79 75 81 78 70 52 26 44 69 83 87 72 64 64 50 35 42 6 325 355 8 318 316 316 315 321 332 334 337 340 340 341 343 342 335
75 66 77 88 81 80 83 81 70 41 49 56 49 41 40 41 46 60 75 74 40 339 328 357 333 344 335 320 324 331 334 331 336 344 350 355 355 353
115 98 84 94 90 86 85 84 95 95 73 69 56 38 30 29 25 28 49 107 96 6 314 359 354 350 344 317 324 327 339 337 337 343 352 2 9 14
146 146 132 112 101 93 84 90 86 80 71 64 54 37 30 21 10 19 34 56 88 76 341 18 26 356 358 352 329 322 328 345 348 349 354 359 12 31
155 159 147 120 100 86 86 88 82 78 75 68 58 37 15 9 18 24 21 29 34 26 19 18 27 18 44 10 331 327 328 337 350 352 358 4 7 8
131 146 129 103 88 87 79 74 78 95 101 94 77 38 29 36 32 30 32 24 36 5 355 9 22 43 34 11 12 352 343 338 338 342 349 3 14 18
130 99 87 85 83 78 75 79 80 81 80 71 65 52 43 43 23 17 36 47 51 14 350 347 356 25 65 49 23 355 347 343 341 343 350 3 19 24
132 132 146 147 145 145 139 121 102 104 105 93 76 70 66 58 33 17 36 53 49 14 351 343 356 9 8 355 25 0 349 341 336 347 356 4 13 30
132 152 166 171 162 157 157 150 147 149 133 109 96 86 83 67 52 32 29 42 39 22 357 352 16 37 29 349 324 8 9 338 345 355 1 5 9 20
150 163 175 171 159 158 161 156 149 144 132 125 118 109 101 89 71 52 49 65 55 36 18 8 7 5 345 267 299 321 4 9 353 351 347 352 15 43
176 173 169 160 161 164 164 162 157 155 153 148 146 143 132 113 96 81 78 73 75 58 37 351 311 326 303 42 23 349 335 356 25 3 346 360 1 3
175 176 173 165 166 170 167 165 160 157 155 156 162 163 153 134 128 119 106 97 90 89 36 337 342 9 33 41 15 336 337 343 354 11 31 31 16 356
175 176 174 172 172 174 170 171 169 169 168 166 168 171 164 152 149 143 130 121 125 93 46 10 1 12 17 22 11 350 352 351 353 359 351 4 27 31